QPF
0.00 0.00 0.00 0.00 0.00 0.00 0.00 0.00 0.00 0.00 0.00 0.00 0.00 0.00 0.00 0.00 0.00 0.01 0.00 0.00 0.00 0.00 0.00 0.00 0.00 0.00 0.00 0.00 0.00 0.01 0.01 0.01 0.00 0.00 0.00 0.00 0.00 0.00 0.00 0.00 0.00 0.00 0.00 0.00 0.00 0.00 0.00 0.00 0.00
0.00 0.00 0.00 0.00 0.00 0.00 0.00 0.00 0.00 0.00 0.00 0.00 0.00 0.00 0.00 0.00 0.00 0.00 0.00 0.01 0.00 0.00 0.00 0.00 0.00 0.00 0.00 0.00 0.00 0.01 0.01 0.00 0.00 0.00 0.00 0.00 0.00 0.00 0.00 0.00 0.00 0.00 0.00 0.00 0.00 0.00 0.00 0.00 0.00
0.00 0.00 0.00 0.00 0.00 0.00 0.00 0.00 0.00 0.00 0.00 0.00 0.00 0.00 0.00 0.00 0.00 0.00 0.00 0.02 0.01 0.00 0.00 0.00 0.00 0.00 0.00 0.00 0.01 0.02 0.01 0.00 0.00 0.00 0.00 0.00 0.00 0.00 0.01 0.01 0.00 0.00 0.00 0.00 0.00 0.00 0.00 0.00 0.00
0.00 0.00 0.00 0.00 0.00 0.00 0.00 0.00 0.00 0.00 0.00 0.00 0.00 0.00 0.00 0.00 0.00 0.00 0.00 0.00 0.00 0.00 0.00 0.00 0.00 0.00 0.00 0.00 0.01 0.02 0.01 0.00 0.00 0.00 0.00 0.00 0.00 0.00 0.00 0.00 0.00 0.00 0.00 0.00 0.00 0.00 0.00 0.00 0.00
0.00 0.00 0.00 0.00 0.00 0.00 0.00 0.00 0.00 0.00 0.00 0.00 0.00 0.00 0.00 0.00 0.00 0.00 0.00 0.00 0.00 0.00 0.00 0.00 0.00 0.00 0.00 0.00 0.00 0.01 0.00 0.00 0.00 0.00 0.00 0.00 0.00 0.00 0.00 0.00 0.00 0.00 0.00 0.00 0.01 0.01 0.00 0.00 0.00
0.00 0.00 0.00 0.00 0.00 0.00 0.00 0.00 0.00 0.00 0.00 0.00 0.00 0.00 0.00 0.00 0.00 0.00 0.00 0.00 0.00 0.00 0.00 0.00 0.00 0.00 0.00 0.00 0.00 0.00 0.00 0.00 0.00 0.00 0.00 0.00 0.00 0.00 0.00 0.00 0.01 0.01 0.00 0.00 0.00 0.00 0.00 0.00 0.00
0.00 0.00 0.00 0.00 0.00 0.00 0.00 0.00 0.00 0.00 0.00 0.00 0.00 0.00 0.00 0.00 0.00 0.00 0.00 0.00 0.00 0.00 0.00 0.00 0.00 0.00 0.00 0.00 0.00 0.00 0.00 0.00 0.00 0.00 0.00 0.00 0.00 0.00 0.00 0.00 0.01 0.01 0.00 0.00 0.00 0.00 0.00 0.00 0.00
0.00 0.00 0.00 0.00 0.00 0.00 0.00 0.00 0.00 0.00 0.00 0.00 0.00 0.00 0.00 0.00 0.00 0.00 0.00 0.00 0.00 0.00 0.00 0.00 0.00 0.00 0.00 0.00 0.00 0.00 0.00 0.00 0.00 0.00 0.00 0.00 0.00 0.00 0.00 0.00 0.00 0.01 0.01 0.00 0.00 0.00 0.00 0.00 0.00
0.00 0.00 0.00 0.00 0.00 0.00 0.00 0.00 0.00 0.00 0.00 0.00 0.00 0.00 0.00 0.00 0.00 0.00 0.00 0.00 0.00 0.00 0.00 0.00 0.00 0.00 0.00 0.00 0.00 0.00 0.00 0.00 0.00 0.00 0.00 0.00 0.00 0.00 0.00 0.00 0.00 0.00 0.00 0.00 0.00 0.00 0.00 0.00 0.00
0.00 0.00 0.00 0.00 0.00 0.00 0.00 0.00 0.00 0.00 0.00 0.00 0.00 0.00 0.00 0.00 0.00 0.00 0.00 0.00 0.00 0.00 0.00 0.00 0.00 0.00 0.00 0.00 0.00 0.00 0.00 0.00 0.00 0.00 0.00 0.00 0.00 0.00 0.00 0.00 0.00 0.00 0.00 0.00 0.00 0.00 0.00 0.00 0.00
0.00 0.00 0.00 0.00 0.00 0.00 0.00 0.00 0.00 0.00 0.00 0.00 0.00 0.00 0.00 0.00 0.00 0.00 0.00 0.00 0.00 0.00 0.00 0.00 0.00 0.00 0.00 0.00 0.00 0.00 0.00 0.00 0.00 0.00 0.00 0.00 0.00 0.00 0.00 0.00 0.00 0.00 0.00 0.00 0.00 0.00 0.00 0.00 0.00
0.00 0.00 0.00 0.00 0.00 0.00 0.00 0.00 0.00 0.00 0.00 0.00 0.00 0.00 0.00 0.00 0.00 0.00 0.00 0.00 0.00 0.00 0.00 0.00 0.00 0.00 0.00 0.00 0.00 0.00 0.00 0.00 0.00 0.00 0.00 0.00 0.00 0.00 0.00 0.00 0.00 0.00 0.00 0.00 0.00 0.00 0.00 0.00 0.00
0.00 0.00 0.00 0.00 0.00 0.00 0.00 0.00 0.00 0.00 0.00 0.00 0.00 0.00 0.00 0.00 0.00 0.00 0.00 0.00 0.00 0.00 0.00 0.00 0.00 0.00 0.00 0.00 0.00 0.00 0.00 0.00 0.00 0.00 0.00 0.00 0.00 0.00 0.00 0.00 0.00 0.00 0.00 0.00 0.00 0.00 0.00 0.00 0.00
0.00 0.00 0.00 0.00 0.00 0.00 0.00 0.00 0.00 0.00 0.00 0.00 0.00 0.00 0.00 0.00 0.00 0.00 0.00 0.00 0.00 0.00 0.00 0.00 0.00 0.00 0.00 0.00 0.00 0.00 0.00 0.00 0.00 0.00 0.00 0.00 0.00 0.00 0.00 0.00 0.00 0.00 0.00 0.00 0.00 0.00 0.00 0.00 0.00
0.00 0.00 0.00 0.00 0.00 0.00 0.00 0.00 0.00 0.00 0.00 0.00 0.00 0.00 0.00 0.00 0.00 0.00 0.00 0.00 0.00 0.00 0.00 0.00 0.00 0.00 0.00 0.00 0.00 0.00 0.00 0.00 0.00 0.00 0.00 0.00 0.00 0.00 0.00 0.00 0.00 0.00 0.00 0.00 0.00 0.00 0.00 0.00 0.00
0.00 0.00 0.00 0.00 0.00 0.00 0.00 0.00 0.00 0.00 0.00 0.00 0.00 0.00 0.00 0.00 0.00 0.00 0.00 0.00 0.00 0.00 0.00 0.00 0.00 0.00 0.00 0.00 0.00 0.00 0.00 0.00 0.00 0.00 0.00 0.00 0.00 0.00 0.00 0.00 0.00 0.00 0.00 0.00 0.00 0.00 0.00 0.00 0.00
0.00 0.00 0.00 0.00 0.00 0.00 0.00 0.00 0.00 0.00 0.00 0.00 0.00 0.00 0.00 0.00 0.00 0.00 0.00 0.00 0.00 0.00 0.00 0.00 0.00 0.00 0.00 0.00 0.00 0.00 0.00 0.00 0.00 0.00 0.00 0.00 0.00 0.00 0.00 0.00 0.00 0.00 0.00 0.00 0.00 0.00 0.00 0.00 0.00
0.00 0.00 0.00 0.00 0.00 0.00 0.00 0.00 0.00 0.00 0.00 0.00 0.00 0.00 0.00 0.00 0.00 0.00 0.00 0.00 0.00 0.00 0.00 0.00 0.00 0.00 0.00 0.00 0.00 0.00 0.00 0.00 0.00 0.00 0.00 0.00 0.00 0.00 0.00 0.00 0.00 0.00 0.00 0.00 0.00 0.00 0.00 0.00 0.00
0.00 0.00 0.00 0.00 0.00 0.00 0.00 0.00 0.00 0.00 0.00 0.00 0.00 0.00 0.00 0.00 0.00 0.00 0.00 0.00 0.00 0.00 0.00 0.00 0.00 0.00 0.00 0.00 0.00 0.00 0.00 0.00 0.00 0.00 0.00 0.00 0.00 0.00 0.00 0.00 0.00 0.00 0.00 0.00 0.00 0.00 0.00 0.00 0.00
0.00 0.00 0.00 0.00 0.00 0.00 0.00 0.00 0.00 0.00 0.00 0.00 0.00 0.00 0.00 0.00 0.00 0.00 0.00 0.00 0.00 0.00 0.00 0.00 0.00 0.00 0.00 0.00 0.00 0.00 0.00 0.00 0.00 0.00 0.00 0.00 0.00 0.00 0.00 0.00 0.00 0.00 0.00 0.00 0.00 0.00 0.00 0.00 0.00
0.00 0.00 0.00 0.00 0.00 0.00 0.00 0.00 0.00 0.00 0.00 0.00 0.00 0.00 0.00 0.00 0.00 0.00 0.00 0.00 0.00 0.00 0.00 0.00 0.00 0.00 0.00 0.00 0.00 0.00 0.00 0.00 0.00 0.00 0.00 0.00 0.00 0.00 0.00 0.00 0.00 0.00 0.00 0.00 0.00 0.00 0.00 0.00 0.00
0.00 0.00 0.00 0.00 0.00 0.00 0.00 0.00 0.00 0.00 0.00 0.00 0.00 0.00 0.00 0.00 0.00 0.00 0.00 0.00 0.00 0.00 0.00 0.00 0.00 0.00 0.00 0.00 0.00 0.00 0.00 0.00 0.00 0.00 0.00 0.01 0.00 0.00 0.00 0.00 0.00 0.00 0.00 0.00 0.00 0.00 0.00 0.00 0.00
0.00 0.00 0.00 0.00 0.00 0.00 0.00 0.00 0.00 0.00 0.00 0.00 0.00 0.00 0.00 0.00 0.00 0.00 0.00 0.00 0.00 0.00 0.00 0.00 0.00 0.00 0.00 0.00 0.00 0.00 0.00 0.00 0.00 0.00 0.00 0.01 0.01 0.01 0.00 0.00 0.00 0.00 0.00 0.00 0.00 0.00 0.00 0.00 0.00
0.00 0.00 0.00 0.00 0.00 0.00 0.00 0.00 0.00 0.00 0.00 0.00 0.00 0.00 0.00 0.00 0.00 0.00 0.00 0.00 0.00 0.00 0.00 0.00 0.00 0.00 0.00 0.00 0.00 0.00 0.00 0.00 0.00 0.00 0.00 0.00 0.00 0.00 0.00 0.00 0.00 0.00 0.00 0.00 0.00 0.00 0.00 0.00 0.00
0.00 0.00 0.00 0.00 0.00 0.00 0.00 0.00 0.00 0.00 0.00 0.00 0.00 0.00 0.00 0.00 0.00 0.00 0.00 0.00 0.00 0.00 0.00 0.00 0.00 0.00 0.00 0.00 0.00 0.00 0.00 0.00 0.00 0.00 0.00 0.00 0.00 0.00 0.00 0.00 0.00 0.00 0.00 0.00 0.00 0.00 0.00 0.00 0.00
0.00 0.00 0.00 0.00 0.00 0.00 0.00 0.00 0.00 0.00 0.00 0.00 0.00 0.00 0.00 0.00 0.00 0.00 0.00 0.00 0.00 0.00 0.00 0.00 0.00 0.00 0.00 0.00 0.00 0.00 0.00 0.00 0.00 0.00 0.00 0.00 0.00 0.00 0.00 0.00 0.00 0.00 0.00 0.00 0.00 0.00 0.00 0.00 0.00
0.00 0.00 0.00 0.00 0.00 0.00 0.00 0.00 0.00 0.00 0.00 0.00 0.00 0.00 0.00 0.00 0.00 0.00 0.00 0.00 0.00 0.00 0.00 0.00 0.00 0.00 0.00 0.00 0.00 0.00 0.00 0.00 0.00 0.00 0.00 0.00 0.00 0.00 0.00 0.00 0.00 0.00 0.00 0.00 0.00 0.00 0.00 0.00 0.00
0.00 0.00 0.00 0.00 0.00 0.00 0.00 0.00 0.00 0.00 0.00 0.00 0.00 0.00 0.00 0.00 0.00 0.00 0.00 0.00 0.00 0.00 0.00 0.00 0.00 0.00 0.00 0.00 0.00 0.00 0.00 0.00 0.00 0.00 0.00 0.00 0.00 0.00 0.00 0.00 0.00 0.00 0.00 0.00 0.00 0.00 0.00 0.00 0.00
0.00 0.00 0.00 0.00 0.00 0.00 0.00 0.00 0.00 0.00 0.00 0.00 0.00 0.00 0.00 0.00 0.00 0.00 0.00 0.00 0.00 0.00 0.00 0.00 0.00 0.00 0.00 0.00 0.00 0.00 0.00 0.00 0.00 0.00 0.00 0.00 0.00 0.00 0.00 0.00 0.00 0.00 0.00 0.00 0.00 0.00 0.00 0.00 0.00
0.00 0.00 0.00 0.00 0.00 0.00 0.00 0.00 0.00 0.00 0.00 0.00 0.00 0.00 0.00 0.00 0.00 0.00 0.00 0.00 0.00 0.00 0.00 0.00 0.00 0.00 0.00 0.00 0.00 0.00 0.00 0.00 0.00 0.00 0.00 0.00 0.00 0.00 0.00 0.00 0.00 0.00 0.00 0.00 0.00 0.00 0.00 0.00 0.00
MSLP
1011.90 1010.94 1010.87 1010.61 1011.41 1010.65 1010.74 1011.09 1010.95 1011.48 1011.70 1012.02 1012.31 1012.84 1013.54 1014.27 1014.94 1016.68 1016.80 1016.91 1017.35 1018.40 1019.26 1019.54 1019.76 1019.94 1020.28 1020.48 1020.53 1020.82 1020.86 1020.98 1021.14 1021.25 1021.39 1021.33 1021.40 1021.55 1021.60 1021.81 1021.91 1021.90 1021.98 1022.11 1022.15 1022.20 1022.16 1022.34 1022.46
1011.61 1010.93 1010.60 1010.47 1010.70 1010.46 1010.76 1011.14 1011.39 1011.76 1012.03 1012.36 1012.66 1012.88 1013.45 1015.01 1015.56 1016.64 1017.09 1017.17 1017.84 1018.70 1019.28 1019.85 1020.16 1020.37 1020.63 1020.76 1020.83 1021.05 1021.18 1021.38 1021.52 1021.65 1021.66 1021.73 1021.81 1021.87 1022.03 1022.21 1022.30 1022.32 1022.47 1022.58 1022.70 1022.71 1022.83 1022.99 1022.93
1011.78 1011.12 1011.06 1010.33 1010.27 1010.38 1010.59 1011.04 1011.59 1012.13 1012.20 1012.36 1012.83 1013.28 1013.92 1015.46 1016.16 1016.67 1016.96 1017.35 1017.80 1018.67 1019.33 1020.10 1020.37 1020.58 1020.77 1020.88 1021.04 1021.33 1021.53 1021.76 1021.93 1021.92 1021.95 1022.15 1022.21 1022.34 1022.35 1022.52 1022.64 1022.78 1022.79 1022.97 1023.06 1023.22 1023.27 1023.33 1023.46
1011.34 1010.83 1010.70 1010.59 1010.38 1010.56 1010.52 1010.80 1011.43 1012.20 1012.60 1012.75 1012.97 1014.23 1015.27 1015.60 1015.68 1016.53 1016.79 1017.01 1017.92 1018.87 1019.79 1020.38 1020.67 1020.84 1021.07 1021.14 1021.29 1021.41 1021.70 1021.97 1022.22 1022.32 1022.45 1022.58 1022.63 1022.74 1022.83 1022.88 1022.98 1023.18 1023.27 1023.36 1023.49 1023.59 1023.72 1023.87 1023.88
1011.36 1010.88 1010.88 1010.68 1010.61 1010.93 1010.77 1010.78 1011.39 1012.03 1012.59 1013.00 1013.30 1014.41 1015.66 1016.25 1016.40 1017.00 1017.18 1017.42 1018.34 1019.18 1020.12 1020.65 1020.92 1021.13 1021.34 1021.49 1021.62 1021.67 1021.96 1022.24 1022.52 1022.72 1022.80 1022.91 1023.04 1023.12 1023.23 1023.23 1023.35 1023.56 1023.63 1023.69 1023.69 1023.83 1024.10 1024.20 1024.20
1011.49 1011.08 1011.00 1010.77 1010.80 1011.19 1011.22 1011.11 1011.45 1011.92 1012.56 1013.19 1013.55 1014.34 1016.19 1016.49 1016.81 1017.26 1017.43 1017.80 1018.34 1019.27 1020.12 1020.79 1021.20 1021.37 1021.53 1021.80 1021.99 1022.09 1022.34 1022.59 1022.84 1023.07 1023.23 1023.31 1023.46 1023.55 1023.66 1023.62 1023.60 1023.81 1024.01 1023.96 1024.00 1024.20 1024.46 1024.57 1024.64
1011.50 1011.45 1011.10 1010.79 1011.02 1011.40 1011.46 1011.42 1011.59 1012.04 1012.71 1013.08 1013.28 1014.26 1016.33 1016.58 1016.88 1017.22 1017.48 1017.73 1018.11 1019.23 1020.22 1020.94 1021.36 1021.69 1021.80 1022.02 1022.23 1022.40 1022.63 1022.93 1023.16 1023.36 1023.57 1023.70 1023.88 1023.96 1024.08 1024.11 1024.02 1024.08 1024.38 1024.45 1024.49 1024.66 1024.86 1025.00 1025.07
1011.64 1011.59 1011.36 1010.86 1010.89 1011.32 1011.52 1011.74 1011.79 1012.18 1013.25 1013.32 1013.72 1014.42 1015.98 1016.31 1016.87 1017.19 1017.57 1017.97 1018.66 1019.26 1020.08 1020.75 1021.30 1021.68 1021.96 1022.26 1022.51 1022.71 1022.88 1022.99 1023.39 1023.63 1023.81 1023.99 1024.16 1024.31 1024.39 1024.49 1024.54 1024.48 1024.64 1024.88 1025.07 1025.26 1025.37 1025.49 1025.54
1011.75 1011.84 1011.42 1010.85 1010.83 1011.34 1011.62 1012.11 1012.35 1012.87 1013.30 1013.68 1014.40 1014.93 1014.93 1016.12 1016.79 1017.20 1017.69 1018.12 1018.78 1019.20 1019.72 1020.33 1021.04 1021.33 1021.80 1022.26 1022.64 1022.88 1023.09 1023.32 1023.64 1023.90 1023.96 1024.07 1024.18 1024.39 1024.56 1024.77 1024.88 1024.88 1024.98 1025.12 1025.36 1025.60 1025.75 1025.77 1025.75
1011.96 1012.02 1011.35 1010.68 1010.57 1011.27 1011.85 1012.26 1012.75 1013.12 1013.77 1014.42 1015.16 1015.58 1015.93 1016.47 1017.09 1017.61 1017.94 1018.39 1018.77 1019.28 1019.64 1019.86 1020.44 1021.00 1021.48 1021.91 1022.67 1022.93 1023.25 1023.48 1023.62 1023.90 1024.08 1024.13 1024.22 1024.53 1024.77 1024.97 1025.04 1025.10 1025.22 1025.28 1025.40 1025.60 1025.81 1025.84 1025.77
1011.89 1011.76 1011.27 1011.19 1011.34 1011.20 1012.09 1012.48 1012.64 1013.09 1013.94 1013.98 1014.98 1015.84 1016.28 1016.76 1017.29 1017.55 1018.04 1018.36 1018.61 1019.32 1019.77 1020.02 1020.05 1020.59 1021.16 1021.69 1022.37 1022.67 1023.00 1023.18 1023.39 1023.70 1023.90 1024.01 1024.31 1024.56 1024.77 1025.13 1025.25 1025.35 1025.41 1025.52 1025.64 1025.84 1025.77 1025.60 1025.47
1011.91 1011.66 1011.40 1011.84 1011.98 1012.00 1012.40 1012.51 1012.82 1013.10 1013.96 1013.79 1014.23 1015.34 1016.13 1016.73 1017.06 1017.29 1017.57 1017.93 1018.40 1018.88 1019.68 1020.28 1020.32 1020.41 1021.03 1021.50 1021.99 1022.26 1022.72 1022.96 1023.28 1023.52 1023.76 1024.13 1024.46 1024.66 1024.77 1025.02 1025.10 1025.28 1025.36 1025.51 1025.62 1025.72 1025.61 1025.59 1025.54
1012.08 1011.98 1012.15 1012.50 1012.57 1012.62 1012.52 1013.06 1013.11 1013.60 1013.92 1014.20 1014.60 1015.29 1016.06 1016.43 1016.74 1016.97 1017.11 1017.43 1017.89 1018.52 1019.20 1019.95 1020.56 1020.66 1020.89 1021.24 1021.75 1022.05 1022.41 1022.83 1023.06 1023.36 1023.69 1024.00 1024.30 1024.56 1024.63 1024.77 1024.92 1025.08 1025.18 1025.35 1025.52 1025.53 1025.59 1025.69 1025.63
1011.85 1012.22 1012.56 1012.97 1013.16 1013.33 1013.24 1013.60 1013.73 1013.68 1013.90 1014.53 1014.93 1015.30 1015.69 1016.01 1016.18 1016.60 1016.83 1017.26 1017.61 1018.24 1018.76 1019.56 1020.20 1020.66 1020.92 1021.23 1021.65 1021.97 1022.00 1022.44 1022.87 1023.17 1023.52 1023.80 1024.00 1024.29 1024.55 1024.74 1024.88 1025.03 1025.13 1025.26 1025.41 1025.54 1025.61 1025.65 1025.60
1012.07 1012.84 1013.04 1013.31 1013.52 1013.90 1013.66 1014.23 1014.02 1013.88 1014.08 1014.72 1015.11 1015.26 1015.44 1015.64 1015.80 1016.06 1016.39 1016.76 1017.18 1017.74 1018.36 1019.05 1019.78 1020.29 1020.87 1021.29 1021.77 1022.15 1022.27 1022.50 1022.53 1022.86 1023.17 1023.54 1023.81 1024.12 1024.38 1024.65 1024.82 1024.85 1024.92 1025.07 1025.23 1025.36 1025.44 1025.60 1025.52
1012.67 1012.88 1013.25 1013.65 1013.69 1014.23 1014.20 1014.10 1013.79 1014.04 1014.30 1014.68 1014.91 1015.12 1015.35 1015.43 1015.50 1015.82 1015.92 1016.48 1016.96 1017.39 1018.15 1018.55 1019.13 1019.85 1020.44 1021.11 1021.57 1022.00 1022.28 1022.56 1022.73 1022.88 1023.00 1023.35 1023.67 1023.94 1024.24 1024.53 1024.62 1024.75 1024.92 1025.09 1025.30 1025.47 1025.78 1025.93 1025.89
1012.62 1012.69 1013.06 1013.90 1014.08 1014.19 1014.50 1014.33 1014.31 1014.33 1014.45 1014.65 1014.52 1014.89 1015.25 1015.43 1015.68 1015.68 1015.80 1016.26 1016.71 1017.05 1017.65 1018.25 1018.73 1019.51 1020.19 1020.86 1021.28 1021.69 1022.12 1022.48 1022.71 1022.88 1023.09 1023.20 1023.47 1023.77 1024.12 1024.48 1024.76 1024.90 1025.05 1025.30 1025.39 1025.52 1025.68 1025.77 1025.72
1012.29 1012.65 1012.90 1013.73 1014.38 1014.46 1014.74 1014.55 1014.38 1014.42 1014.54 1014.64 1014.60 1014.90 1015.18 1015.38 1015.69 1015.89 1015.92 1016.26 1016.43 1016.89 1017.23 1017.77 1018.36 1019.08 1019.88 1020.65 1021.12 1021.46 1021.89 1022.22 1022.46 1022.69 1022.98 1023.13 1023.24 1023.36 1023.70 1024.05 1024.36 1024.62 1024.96 1025.11 1025.26 1025.53 1025.58 1025.63 1025.66
1012.07 1012.62 1012.95 1013.68 1014.24 1014.57 1014.70 1014.62 1014.40 1014.38 1014.81 1014.68 1014.80 1014.95 1015.21 1015.54 1015.95 1016.16 1016.44 1016.51 1016.83 1017.04 1017.24 1017.48 1018.04 1018.62 1019.48 1020.38 1021.13 1021.45 1021.64 1021.98 1022.26 1022.43 1022.68 1022.88 1023.08 1023.27 1023.52 1023.82 1023.97 1024.12 1024.42 1024.74 1025.03 1025.42 1025.60 1025.62 1025.69
1011.97 1012.40 1013.28 1014.31 1014.64 1015.08 1014.78 1014.68 1014.28 1014.23 1014.52 1014.69 1014.99 1014.88 1015.24 1015.72 1016.38 1016.72 1017.06 1017.09 1017.48 1017.67 1017.67 1017.65 1017.70 1018.12 1018.76 1019.50 1020.43 1020.96 1021.37 1021.75 1021.84 1022.21 1022.48 1022.71 1022.92 1023.09 1023.23 1023.38 1023.48 1023.60 1024.17 1024.48 1024.76 1025.05 1025.32 1025.39 1025.35
1012.22 1012.35 1013.20 1014.06 1015.19 1015.49 1015.36 1014.95 1014.48 1014.26 1014.42 1014.77 1015.19 1015.44 1015.74 1016.12 1016.69 1017.29 1017.53 1017.88 1017.95 1018.06 1018.16 1017.94 1017.95 1018.03 1018.41 1019.07 1019.97 1020.79 1021.27 1021.54 1021.94 1022.25 1022.50 1022.58 1022.73 1022.87 1022.93 1023.00 1023.24 1023.53 1023.83 1024.11 1024.43 1024.78 1025.08 1025.25 1025.36
1012.72 1012.64 1013.07 1014.38 1015.43 1015.84 1015.34 1015.02 1014.19 1014.32 1014.92 1015.40 1015.83 1016.12 1016.44 1016.70 1017.16 1017.45 1017.85 1018.46 1018.52 1018.69 1018.53 1018.25 1018.12 1018.27 1018.44 1018.97 1019.81 1020.53 1020.99 1021.35 1021.62 1021.71 1022.02 1022.29 1022.48 1022.69 1022.85 1023.02 1023.11 1023.27 1023.54 1023.93 1024.14 1024.15 1024.41 1024.75 1025.00
1013.46 1013.33 1014.02 1014.83 1015.63 1015.90 1016.00 1015.89 1014.71 1014.61 1015.32 1015.67 1015.91 1016.32 1016.82 1017.14 1017.63 1018.00 1018.58 1018.77 1019.00 1018.96 1018.68 1018.53 1018.56 1018.57 1018.81 1019.01 1019.53 1020.28 1020.84 1021.34 1021.55 1021.87 1021.96 1022.21 1022.34 1022.54 1022.70 1022.83 1022.94 1023.22 1023.34 1023.45 1023.65 1023.87 1024.07 1024.35 1024.39
1013.94 1014.51 1015.20 1015.58 1016.44 1016.93 1016.20 1016.09 1015.13 1014.89 1014.52 1015.33 1015.88 1016.65 1017.21 1017.73 1018.46 1018.44 1018.98 1019.32 1019.26 1019.48 1019.22 1018.91 1018.98 1019.28 1019.45 1019.66 1019.88 1020.33 1020.90 1021.50 1021.83 1022.26 1022.35 1022.54 1022.77 1022.89 1022.92 1023.11 1023.22 1023.27 1023.36 1023.35 1023.41 1023.55 1023.69 1023.84 1024.02
1014.24 1014.91 1016.46 1017.47 1017.79 1017.69 1016.92 1016.47 1014.91 1014.28 1014.07 1014.67 1015.70 1016.85 1017.60 1017.86 1018.87 1018.88 1019.48 1019.66 1019.97 1020.15 1019.89 1019.87 1019.92 1020.00 1020.17 1020.49 1020.80 1021.05 1021.37 1021.65 1022.19 1022.61 1022.91 1023.00 1023.19 1023.51 1023.72 1023.68 1023.64 1023.49 1023.41 1023.51 1023.56 1023.69 1023.81 1023.87 1023.90
1014.32 1014.40 1015.70 1017.35 1018.48 1018.60 1017.91 1016.40 1014.48 1014.36 1014.19 1014.61 1015.35 1016.55 1017.60 1018.07 1018.84 1019.17 1019.81 1019.80 1020.37 1020.66 1020.51 1020.41 1020.65 1020.80 1020.93 1021.18 1021.70 1022.13 1022.52 1022.86 1023.14 1023.27 1023.71 1023.95 1024.26 1024.36 1024.28 1024.23 1024.02 1023.97 1023.95 1023.85 1023.82 1023.56 1023.68 1023.72 1023.84
1014.46 1014.56 1015.04 1016.89 1018.66 1018.88 1017.58 1016.00 1015.13 1014.89 1014.91 1015.07 1015.69 1016.81 1017.65 1018.35 1018.96 1019.47 1020.04 1020.21 1020.78 1021.19 1021.28 1021.11 1021.41 1021.64 1021.59 1022.04 1022.41 1022.85 1023.25 1023.65 1023.99 1024.15 1024.26 1024.51 1024.74 1024.78 1024.79 1024.67 1024.56 1024.47 1024.38 1024.33 1024.29 1024.27 1024.00 1023.94 1023.79
1013.73 1013.74 1015.11 1016.03 1018.15 1018.69 1017.15 1015.89 1014.71 1015.25 1014.80 1015.32 1015.92 1016.62 1017.65 1018.45 1018.94 1019.64 1020.16 1020.59 1021.17 1021.49 1021.69 1021.84 1022.20 1022.38 1022.47 1022.80 1023.24 1023.48 1024.07 1024.40 1024.77 1024.92 1025.14 1025.22 1025.22 1025.28 1025.38 1025.40 1025.19 1025.01 1024.88 1024.83 1024.60 1024.27 1024.12 1024.11 1023.99
1013.97 1013.68 1014.35 1014.99 1016.24 1016.77 1016.87 1015.29 1013.25 1013.06 1013.52 1014.57 1015.61 1016.35 1017.45 1018.42 1019.10 1019.79 1020.29 1020.89 1021.29 1021.73 1022.22 1022.53 1022.83 1023.14 1023.25 1023.44 1023.79 1024.09 1024.55 1025.01 1025.36 1025.42 1025.73 1025.92 1025.83 1025.84 1025.78 1025.79 1025.60 1025.36 1025.26 1025.11 1025.04 1024.87 1024.62 1024.50 1024.15
1013.37 1013.33 1013.56 1014.45 1015.40 1015.97 1015.91 1014.27 1013.04 1012.47 1013.02 1014.03 1015.00 1016.04 1017.23 1018.18 1018.86 1019.53 1020.26 1021.04 1021.68 1021.93 1022.40 1022.98 1023.38 1023.68 1023.89 1023.98 1024.26 1024.72 1025.17 1025.54 1025.93 1026.07 1026.25 1026.35 1026.40 1026.19 1026.15 1026.09 1026.03 1025.86 1025.64 1025.52 1025.31 1025.21 1024.96 1024.80 1024.43
Thickness
5737 5748 5750 5745 5708 5715 5705 5711 5728 5717 5717 5729 5727 5717 5707 5707 5697 5674 5704 5704 5697 5689 5684 5684 5684 5685 5685 5686 5688 5687 5688 5688 5688 5688 5687 5689 5690 5691 5693 5693 5692 5692 5691 5690 5689 5688 5688 5686 5685
5739 5746 5746 5733 5703 5696 5701 5721 5715 5720 5726 5729 5726 5724 5715 5695 5707 5699 5697 5704 5695 5687 5684 5682 5681 5682 5684 5685 5686 5685 5685 5685 5685 5685 5687 5688 5689 5690 5690 5689 5689 5688 5687 5686 5684 5684 5682 5680 5680
5736 5743 5723 5718 5708 5694 5699 5723 5718 5723 5732 5730 5722 5726 5717 5699 5705 5703 5707 5704 5697 5689 5684 5681 5680 5681 5682 5684 5685 5683 5683 5683 5683 5684 5685 5686 5687 5687 5687 5687 5686 5684 5683 5682 5681 5679 5678 5677 5676
5730 5732 5732 5704 5707 5717 5721 5728 5727 5721 5726 5730 5728 5702 5709 5717 5716 5713 5714 5710 5701 5690 5684 5682 5682 5682 5683 5685 5684 5683 5682 5682 5682 5683 5683 5683 5684 5684 5684 5683 5683 5681 5680 5679 5677 5676 5675 5673 5672
5727 5723 5700 5702 5708 5718 5728 5735 5732 5723 5721 5722 5727 5705 5699 5712 5717 5712 5711 5709 5700 5692 5685 5682 5682 5682 5682 5682 5682 5680 5681 5680 5680 5679 5680 5680 5680 5680 5680 5681 5680 5678 5677 5676 5676 5674 5672 5670 5670
5704 5716 5692 5691 5708 5717 5725 5736 5732 5727 5725 5721 5721 5712 5699 5714 5714 5711 5712 5710 5702 5696 5690 5685 5683 5682 5682 5681 5681 5680 5679 5679 5678 5678 5678 5678 5677 5677 5677 5678 5678 5676 5674 5674 5673 5671 5669 5667 5666
5701 5697 5693 5707 5700 5707 5717 5734 5727 5724 5722 5721 5732 5712 5702 5710 5717 5716 5714 5713 5709 5699 5692 5687 5684 5682 5682 5682 5681 5680 5680 5679 5678 5678 5677 5677 5676 5675 5675 5674 5675 5674 5672 5671 5669 5667 5665 5664 5663
5703 5701 5692 5709 5699 5704 5721 5726 5734 5729 5713 5734 5732 5713 5698 5713 5719 5719 5717 5714 5708 5702 5695 5690 5687 5685 5684 5684 5682 5681 5681 5681 5678 5677 5677 5676 5675 5674 5673 5672 5672 5671 5670 5667 5665 5663 5661 5659 5658
5711 5687 5683 5703 5708 5707 5722 5716 5730 5729 5720 5726 5726 5719 5726 5722 5720 5719 5715 5714 5710 5707 5702 5696 5691 5690 5688 5686 5685 5683 5682 5681 5679 5677 5677 5677 5675 5674 5672 5671 5669 5668 5666 5664 5662 5660 5658 5657 5656
5690 5681 5695 5720 5726 5712 5716 5716 5717 5718 5713 5713 5712 5720 5721 5720 5715 5711 5710 5708 5709 5707 5706 5703 5698 5695 5692 5689 5686 5684 5682 5680 5679 5677 5677 5676 5675 5673 5671 5669 5667 5666 5664 5662 5660 5658 5657 5655 5654
5694 5687 5708 5711 5716 5725 5714 5716 5723 5717 5706 5717 5709 5711 5715 5715 5713 5712 5711 5711 5711 5707 5706 5706 5704 5700 5696 5693 5689 5686 5685 5683 5682 5680 5678 5676 5675 5673 5671 5668 5666 5664 5662 5660 5658 5656 5656 5655 5654
5684 5701 5710 5708 5709 5716 5708 5720 5717 5721 5716 5727 5727 5720 5717 5713 5713 5715 5716 5716 5714 5713 5707 5705 5705 5704 5699 5696 5693 5691 5688 5686 5683 5681 5679 5676 5674 5672 5670 5668 5666 5664 5662 5661 5659 5657 5656 5654 5653
5683 5693 5702 5698 5704 5708 5715 5708 5714 5715 5718 5722 5723 5720 5716 5716 5716 5719 5722 5722 5721 5716 5712 5708 5704 5704 5702 5700 5696 5694 5691 5688 5685 5683 5679 5677 5675 5673 5671 5669 5667 5665 5663 5662 5660 5658 5656 5654 5653
5687 5692 5693 5694 5696 5698 5702 5702 5707 5715 5718 5716 5717 5717 5718 5719 5721 5721 5722 5720 5721 5719 5715 5710 5707 5704 5702 5700 5697 5694 5693 5690 5687 5684 5681 5678 5676 5674 5672 5669 5667 5665 5663 5660 5659 5657 5655 5653 5652
5679 5672 5682 5686 5689 5688 5701 5691 5695 5709 5716 5711 5711 5713 5718 5720 5723 5722 5725 5724 5725 5722 5719 5714 5708 5705 5701 5699 5695 5692 5691 5689 5688 5685 5682 5679 5676 5673 5670 5668 5667 5665 5663 5660 5658 5656 5654 5651 5650
5666 5670 5657 5677 5685 5684 5691 5684 5699 5706 5706 5707 5710 5711 5714 5720 5724 5724 5728 5726 5725 5723 5717 5717 5712 5706 5703 5698 5695 5691 5689 5687 5685 5683 5681 5678 5675 5672 5669 5667 5665 5662 5660 5658 5655 5653 5649 5646 5645
5657 5649 5663 5661 5679 5680 5682 5686 5693 5704 5704 5704 5711 5713 5710 5714 5718 5724 5728 5725 5725 5723 5720 5716 5714 5708 5703 5698 5696 5692 5688 5685 5683 5681 5678 5676 5673 5670 5668 5665 5662 5659 5656 5653 5651 5648 5645 5642 5640
5641 5649 5662 5656 5665 5675 5673 5680 5691 5694 5700 5704 5708 5711 5712 5713 5714 5719 5724 5724 5724 5721 5721 5717 5713 5709 5702 5696 5692 5690 5687 5683 5681 5678 5675 5673 5671 5670 5667 5664 5661 5658 5654 5650 5647 5643 5640 5638 5635
5663 5658 5661 5666 5671 5671 5669 5678 5685 5689 5690 5698 5703 5704 5708 5709 5711 5713 5715 5718 5715 5716 5716 5716 5712 5709 5703 5694 5687 5685 5684 5682 5678 5676 5672 5670 5668 5665 5663 5660 5657 5655 5651 5646 5641 5637 5633 5630 5627
5656 5649 5650 5646 5660 5659 5665 5667 5683 5690 5692 5696 5699 5707 5707 5707 5704 5705 5707 5710 5706 5705 5708 5710 5710 5709 5705 5698 5690 5685 5681 5677 5675 5672 5669 5666 5663 5662 5659 5656 5653 5651 5646 5641 5636 5633 5628 5626 5623
5648 5651 5647 5652 5647 5654 5659 5658 5671 5686 5693 5691 5694 5697 5700 5703 5699 5697 5699 5698 5699 5699 5699 5703 5703 5704 5701 5697 5688 5681 5677 5673 5668 5665 5662 5660 5658 5656 5655 5652 5649 5644 5641 5637 5631 5625 5621 5618 5613
5631 5654 5650 5638 5637 5628 5654 5630 5668 5670 5673 5678 5682 5683 5687 5691 5694 5694 5693 5688 5690 5689 5692 5695 5696 5696 5695 5692 5683 5677 5673 5668 5666 5665 5661 5656 5653 5650 5647 5644 5642 5639 5635 5630 5625 5622 5618 5612 5607
5628 5641 5639 5640 5637 5640 5641 5632 5665 5666 5665 5670 5677 5681 5682 5683 5683 5684 5681 5683 5681 5683 5687 5687 5687 5687 5686 5685 5681 5673 5667 5663 5661 5657 5655 5651 5647 5643 5640 5638 5636 5631 5628 5625 5621 5616 5611 5604 5602
5624 5623 5626 5632 5624 5605 5635 5630 5643 5650 5671 5671 5676 5675 5674 5674 5670 5675 5674 5672 5675 5673 5676 5679 5679 5676 5674 5673 5670 5667 5661 5655 5652 5647 5645 5642 5637 5634 5632 5628 5625 5622 5618 5616 5612 5606 5603 5598 5592
5616 5613 5580 5581 5576 5588 5606 5623 5645 5668 5682 5678 5671 5667 5666 5668 5662 5666 5663 5662 5662 5661 5664 5666 5666 5664 5662 5659 5656 5653 5650 5648 5642 5638 5634 5632 5628 5623 5618 5617 5614 5611 5608 5603 5599 5595 5590 5584 5581
5605 5613 5581 5569 5572 5593 5594 5607 5644 5664 5677 5676 5672 5664 5661 5661 5658 5657 5653 5654 5652 5650 5652 5654 5652 5650 5648 5645 5641 5637 5634 5630 5626 5624 5619 5615 5610 5608 5606 5603 5601 5598 5594 5591 5587 5585 5579 5574 5570
5595 5592 5612 5579 5534 5568 5595 5626 5643 5651 5657 5661 5660 5656 5653 5652 5648 5646 5644 5644 5641 5638 5639 5641 5638 5636 5636 5631 5627 5623 5620 5615 5611 5609 5607 5603 5598 5593 5591 5589 5587 5583 5580 5576 5572 5569 5566 5562 5558
5602 5615 5586 5588 5554 5561 5597 5617 5632 5631 5645 5651 5651 5648 5644 5641 5640 5637 5635 5633 5629 5627 5626 5626 5623 5621 5620 5617 5613 5610 5605 5601 5597 5594 5590 5587 5584 5581 5577 5573 5571 5568 5565 5562 5560 5558 5554 5550 5545
5589 5593 5600 5602 5590 5568 5567 5597 5654 5651 5653 5650 5644 5643 5639 5633 5629 5627 5624 5622 5620 5617 5613 5611 5609 5607 5606 5603 5600 5597 5592 5588 5583 5581 5576 5571 5569 5565 5562 5558 5556 5554 5551 5548 5544 5541 5539 5535 5533
5589 5603 5601 5586 5586 5584 5579 5601 5643 5654 5652 5646 5642 5639 5630 5626 5624 5620 5615 5611 5608 5606 5602 5598 5595 5593 5591 5590 5587 5583 5578 5573 5568 5564 5559 5555 5551 5549 5546 5543 5540 5538 5535 5533 5532 5528 5524 5520 5518